This is the latest recevied weather packets stored in our database for station/object IK0TIX. If no packets are shown the sender has not sent any weather packets the latest 10 day(s).
| Time | Temp. | Humidity | Pressure | Rain* | Wind** | Luminosity | Snow |
|---|---|---|---|---|---|---|---|
| 1777931998 | 17.78° C | 71% | 1019 hPa | 0 mm | - | - | - |
| 1777930781 | 17.78° C | 72% | 1019.1 hPa | 0 mm | - | - | - |
| 1777927482 | 18.33° C | 69% | 1019.2 hPa | 0 mm | - | - | - |
| 1777924473 | 18.33° C | 70% | 1019.3 hPa | 0 mm | - | - | - |
| 1777924194 | 18.33° C | 70% | 1019.3 hPa | 0 mm | - | - | - |
| 1777923586 | 18.33° C | 70% | 1019.2 hPa | 0 mm | - | - | - |
| 1777923020 | 18.89° C | 69% | 1019.1 hPa | 0 mm | - | - | - |
| 1777922386 | 18.89° C | 68% | 1019.1 hPa | 0 mm | - | - | - |
| 1777920285 | 18.89° C | 67% | 1019 hPa | 0 mm | - | - | - |
| 1777918472 | 18.89° C | 67% | 1018.9 hPa | 0 mm | - | - | - |
| 1777918184 | 18.89° C | 67% | 1018.7 hPa | 0 mm | - | - | - |
| 1777917883 | 19.44° C | 67% | 1018.8 hPa | 0 mm | - | - | - |
| 1777917275 | 19.44° C | 65% | 1018.9 hPa | 0 mm | - | - | - |
| 1777916981 | 19.44° C | 65% | 1018.9 hPa | 0 mm | - | - | - |
| 1777916390 | 19.44° C | 63% | 1018.8 hPa | 0 mm | - | - | - |
| 1777914580 | 20° C | 62% | 1018.8 hPa | 0 mm | - | - | - |
| 1777913698 | 20° C | 60% | 1018.8 hPa | 0 mm | - | - | - |
| 1777913373 | 20° C | 61% | 1018.8 hPa | 0 mm | - | - | - |
| 1777911579 | 20.56° C | 58% | 1018.8 hPa | 0 mm | - | - | - |
| 1777911273 | 20.56° C | 62% | 1018.9 hPa | 0 mm | - | - | - |
| 1777910071 | 20.56° C | 62% | 1019 hPa | 0 mm | - | - | - |
| 1777909489 | 20.56° C | 61% | 1018.9 hPa | 0 mm | - | - | - |
| 1777907669 | 20.56° C | 62% | 1018.7 hPa | 0 mm | - | - | - |
| 1777904979 | 21.67° C | 57% | 1019.2 hPa | 0 mm | - | - | - |
| 1777903803 | 22.78° C | 52% | 1019.2 hPa | 0 mm | - | - | - |
* Rain latest hour (hover to see other rain measurements)
** Current wind speed in m/s (hover to see current wind gust speed)